When you browse on this site, cookies collect data to enhance your experience and personalize the content and advertising you see.
Visit our Privacy Policy to learn more. By continuing to use the site, you agree to this use of cookies and data.
  • In Hungary
  • List of Countries
  • For 7 days
  • Water Temperature
  • Weather Map
  • News
  • Weather Widgets
  • user-avatar
    Login

    Hourly Weather Safarovo

    Today, 19 February, Wednesday

    Time Temperature Precipitation Wind Pressure Humidity
    00:00 -5°C° 0 mm 5 mps 722 mmHg 85%
    01:00 -5°C° 0 mm 5 mps 722 mmHg 85%
    02:00 -5°C° 0 mm 5 mps 722 mmHg 84%
    03:00 -5°C° 0 mm 5 mps 722 mmHg 84%
    04:00 -5°C° 0 mm 5 mps 722 mmHg 83%
    05:00 -5°C° 0 mm 5 mps 722 mmHg 84%
    06:00 -5°C° 0 mm 5 mps 722 mmHg 85%
    07:00 -6°C° 0 mm 5 mps 722 mmHg 86%
    08:00 -5°C° 0 mm 5 mps 722 mmHg 85%
    09:00 -4°C° 0 mm 6 mps 722 mmHg 84%
    10:00 -3°C° 0 mm 6 mps 722 mmHg 83%
    11:00 -3°C° 0 mm 6 mps 722 mmHg 85%
    12:00 -1°C° 0 mm 5 mps 722 mmHg 87%
    13:00 -1°C° 0 mm 5 mps 722 mmHg 90%
    14:00 -1°C° 0 mm 5 mps 722 mmHg 88%
    15:00 -1°C° 0 mm 5 mps 722 mmHg 87%
    16:00 -1°C° 0 mm 5 mps 722 mmHg 86%
    17:00 -2°C° 0 mm 5 mps 722 mmHg 87%
    18:00 -2°C° 0 mm 5 mps 722 mmHg 88%
    19:00 -4°C° 0 mm 5 mps 722 mmHg 88%
    20:00 -5°C° 0 mm 5 mps 722 mmHg 88%
    21:00 -6°C° 0 mm 5 mps 722 mmHg 88%
    22:00 -7°C° 0 mm 5 mps 722 mmHg 88%
    23:00 -7°C° 0 mm 5 mps 722 mmHg 88%

    Tomorrow, 20 February, Thursday

    Time Temperature Precipitation Wind Pressure Humidity
    00:00 -8°C° 0 mm 5 mps 722 mmHg 88%
    01:00 -8°C° 0 mm 5 mps 722 mmHg 88%
    02:00 -8°C° 0 mm 5 mps 722 mmHg 88%
    03:00 -8°C° 0 mm 4 mps 722 mmHg 89%
    04:00 -9°C° 0 mm 4 mps 722 mmHg 89%
    05:00 -9°C° 0 mm 4 mps 722 mmHg 89%
    06:00 -8°C° 0 mm 3 mps 722 mmHg 90%
    07:00 -8°C° 0 mm 3 mps 721 mmHg 90%
    08:00 -8°C° 0 mm 3 mps 722 mmHg 89%
    09:00 -7°C° 0 mm 3 mps 722 mmHg 89%
    10:00 -5°C° 0 mm 2 mps 723 mmHg 88%
    11:00 -4°C° 0 mm 2 mps 723 mmHg 88%
    12:00 -3°C° 0 mm 2 mps 723 mmHg 88%
    13:00 -2°C° 0 mm 2 mps 723 mmHg 88%
    14:00 -2°C° 0 mm 2 mps 723 mmHg 88%
    15:00 -2°C° 0 mm 2 mps 723 mmHg 88%
    16:00 -2°C° 0 mm 2 mps 723 mmHg 88%
    17:00 -3°C° 0 mm 2 mps 723 mmHg 88%
    18:00 -4°C° 0 mm 2 mps 723 mmHg 88%
    19:00 -4°C° 0 mm 1 mps 723 mmHg 87%
    20:00 -4°C° 0 mm 1 mps 723 mmHg 88%
    21:00 -6°C° 0 mm 1 mps 723 mmHg 88%
    22:00 -6°C° 0 mm 1 mps 724 mmHg 88%
    23:00 -7°C° 0 mm 1 mps 724 mmHg 88%

    Day after tomorrow, 21 February, Friday

    Time Temperature Precipitation Wind Pressure Humidity
    00:00 -7°C° 0 mm 1 mps 724 mmHg 88%
    01:00 -7°C° 0 mm 1 mps 724 mmHg 89%
    02:00 -8°C° 0 mm 1 mps 724 mmHg 88%
    03:00 -8°C° 0 mm 1 mps 724 mmHg 88%
    04:00 -8°C° 0 mm 1 mps 725 mmHg 88%
    05:00 -8°C° 0 mm 1 mps 725 mmHg 88%
    06:00 -8°C° 0 mm 1 mps 725 mmHg 88%
    07:00 -9°C° 0 mm 1 mps 725 mmHg 88%
    08:00 -7°C° 0 mm 1 mps 726 mmHg 88%
    09:00 -6°C° 0 mm 1 mps 726 mmHg 87%
    10:00 -3°C° 0 mm 1 mps 727 mmHg 87%
    17:00 -3°C° 0 mm 1 mps 727 mmHg 86%
    18:00 -6°C° 0 mm 1 mps 727 mmHg 87%
    19:00 -7°C° 0 mm 1 mps 727 mmHg 87%
    20:00 -8°C° 0 mm 1 mps 728 mmHg 88%
    21:00 -8°C° 0 mm 1 mps 728 mmHg 88%
    22:00 -9°C° 0 mm 1 mps 728 mmHg 88%
    23:00 -9°C° 0 mm 1 mps 728 mmHg 88%

    22 February, Saturday

    Time Temperature Precipitation Wind Pressure Humidity
    00:00 -9°C° 0 mm 1 mps 728 mmHg 88%
    01:00 -9°C° 0 mm 1 mps 729 mmHg 87%
    02:00 -9°C° 0 mm 1 mps 729 mmHg 87%
    03:00 -10°C° 0 mm 1 mps 729 mmHg 87%
    04:00 -10°C° 0 mm 1 mps 729 mmHg 87%
    05:00 -10°C° 0 mm 1 mps 729 mmHg 87%
    06:00 -10°C° 0 mm 1 mps 729 mmHg 87%
    07:00 -10°C° 0 mm 1 mps 729 mmHg 88%
    08:00 -9°C° 0 mm 0 mps 730 mmHg 87%
    09:00 -7°C° 0 mm 0 mps 730 mmHg 87%
    10:00 -5°C° 0 mm 0 mps 731 mmHg 87%
    11:00 -5°C° 0 mm 0 mps 731 mmHg 87%
    12:00 -4°C° 0 mm 0 mps 731 mmHg 86%
    13:00 -3°C° 0 mm 0 mps 731 mmHg 86%
    14:00 -2°C° 0 mm 1 mps 731 mmHg 87%
    15:00 -3°C° 0 mm 1 mps 731 mmHg 89%
    16:00 -3°C° 0 mm 1 mps 731 mmHg 90%
    17:00 -6°C° 0 mm 1 mps 731 mmHg 91%
    18:00 -7°C° 0 mm 1 mps 731 mmHg 91%
    19:00 -8°C° 0 mm 1 mps 731 mmHg 92%
    20:00 -9°C° 0 mm 1 mps 731 mmHg 92%
    21:00 -9°C° 0 mm 1 mps 731 mmHg 92%
    22:00 -9°C° 0 mm 1 mps 731 mmHg 92%
    23:00 -9°C° 0 mm 1 mps 731 mmHg 93%

    23 February, Sunday

    Time Temperature Precipitation Wind Pressure Humidity
    00:00 -10°C° 0 mm 1 mps 731 mmHg 93%
    01:00 -10°C° 0 mm 1 mps 731 mmHg 93%
    02:00 -10°C° 0 mm 1 mps 730 mmHg 94%
    03:00 -11°C° 0 mm 1 mps 730 mmHg 94%
    04:00 -13°C° 0 mm 2 mps 730 mmHg 94%
    05:00 -13°C° 0 mm 2 mps 730 mmHg 94%
    06:00 -14°C° 0 mm 2 mps 729 mmHg 94%
    07:00 -14°C° 0 mm 2 mps 729 mmHg 94%
    08:00 -13°C° 0 mm 2 mps 729 mmHg 93%
    09:00 -12°C° 0 mm 3 mps 729 mmHg 93%
    10:00 -10°C° 0 mm 3 mps 729 mmHg 93%
    11:00 -9°C° 0 mm 3 mps 728 mmHg 93%
    12:00 -9°C° 0 mm 3 mps 728 mmHg 93%
    13:00 -9°C° 0 mm 4 mps 727 mmHg 93%
    14:00 -9°C° 0 mm 4 mps 727 mmHg 93%
    15:00 -9°C° 0 mm 4 mps 726 mmHg 93%
    16:00 -10°C° 0 mm 4 mps 726 mmHg 93%
    17:00 -10°C° 0 mm 4 mps 725 mmHg 94%
    18:00 -10°C° 0 mm 3 mps 725 mmHg 95%
    19:00 -12°C° 0 mm 3 mps 725 mmHg 96%
    20:00 -12°C° 0 mm 3 mps 724 mmHg 96%
    21:00 -12°C° 0 mm 3 mps 724 mmHg 95%
    22:00 -12°C° 0 mm 3 mps 723 mmHg 95%
    23:00 -12°C° 0 mm 3 mps 723 mmHg 95%

    24 February, Monday

    Time Temperature Precipitation Wind Pressure Humidity
    00:00 -13°C° 0 mm 3 mps 722 mmHg 95%
    01:00 -13°C° 0 mm 3 mps 721 mmHg 95%
    02:00 -13°C° 0 mm 3 mps 721 mmHg 95%
    03:00 -14°C° 0 mm 3 mps 720 mmHg 95%
    04:00 -14°C° 0 mm 3 mps 720 mmHg 95%
    05:00 -14°C° 0 mm 3 mps 719 mmHg 95%
    06:00 -14°C° 0 mm 3 mps 719 mmHg 95%
    07:00 -14°C° 0 mm 3 mps 718 mmHg 95%
    08:00 -13°C° 0 mm 3 mps 718 mmHg 95%
    09:00 -14°C° 0 mm 4 mps 717 mmHg 94%
    10:00 -12°C° 0 mm 4 mps 717 mmHg 93%
    11:00 -11°C° 0.3 mm 4 mps 716 mmHg 94%
    12:00 -10°C° 0.3 mm 4 mps 715 mmHg 94%
    13:00 -9°C° 0.3 mm 4 mps 714 mmHg 94%
    14:00 -8°C° 0.6 mm 4 mps 714 mmHg 95%
    15:00 -7°C° 0.6 mm 4 mps 713 mmHg 95%
    16:00 -5°C° 0.6 mm 4 mps 713 mmHg 95%
    17:00 -5°C° 0.6 mm 4 mps 712 mmHg 96%
    18:00 -5°C° 0.6 mm 3 mps 712 mmHg 96%
    19:00 -5°C° 0.6 mm 3 mps 712 mmHg 96%
    20:00 -5°C° 0.1 mm 3 mps 712 mmHg 96%
    21:00 -5°C° 0.1 mm 3 mps 712 mmHg 95%
    22:00 -5°C° 0.1 mm 3 mps 711 mmHg 95%
    23:00 -6°C° 0 mm 3 mps 712 mmHg 93%
    Show more